W5CI Weather Reports


time (UTC)temp
F
wind
direction
speed
knots
gust
knots
rain 1hr
in
rain 24hr
in
rain mn
in
humidity
%
barometer
mb
20260510083033 61 0 0.0 0.0 0.00 0.00 0.00 94 1013.2
20260510081548 61 0 0.0 0.0 0.00 0.00 0.00 94 1013.1
20260510080032 61 0 0.0 0.0 0.00 0.00 0.00 93 1013.2
20260510074534 61 0 0.0 0.0 0.00 0.00 0.00 93 1013.0
20260510073033 62 0 0.0 0.0 0.00 0.00 0.00 93 1013.0
20260510071539 62 0 0.0 0.0 0.00 0.00 0.00 92 1012.9
20260510070039 62 0 0.0 0.0 0.00 0.00 0.00 92 1012.7
20260510064532 62 0 0.0 0.0 0.00 0.00 0.00 91 1012.9
20260510063035 62 0 0.0 0.0 0.00 0.00 0.00 91 1013.3
20260510061532 63 0 0.0 0.0 0.00 0.00 0.00 89 1013.3
20260510060031 63 0 0.0 0.0 0.00 0.00 0.00 89 1013.1
20260510054530 63 0 0.0 0.0 0.00 0.00 0.00 88 1013.1
20260510053030 64 0 0.0 0.0 0.00 0.00 0.00 89 1012.9
20260510051536 64 0 0.0 0.0 0.00 0.00 0.00 88 1012.7
20260510050035 64 0 0.0 0.0 0.00 0.00 0.00 89 1012.7
20260510044534 64 0 0.0 0.0 0.00 0.00 0.00 89 1012.8
20260510043039 64 0 0.0 0.0 0.00 0.00 0.00 89 1012.6
20260510041534 65 159 0.9 1.7 0.00 0.00 0.00 89 1012.6
20260510040035 65 0 0.0 0.0 0.00 0.00 0.00 85 1012.5
20260510034540 65 0 0.0 0.0 0.00 0.00 0.00 85 1012.4
20260510033035 66 0 0.0 0.0 0.00 0.00 0.00 84 1012.2
20260510031535 66 0 0.0 0.0 0.00 0.00 0.00 83 1012.0
20260510030037 67 0 0.0 0.0 0.00 0.00 0.00 83 1012.0
20260510024534 67 0 0.0 0.0 0.00 0.00 0.00 81 1012.0
20260510023036 68 0 0.0 0.0 0.00 0.00 0.00 80 1011.8
20260510021535 69 0 0.0 0.0 0.00 0.00 0.00 79 1011.7
20260510020036 69 0 0.0 0.0 0.00 0.00 0.00 78 1011.6
20260510014531 71 0 0.0 0.0 0.00 0.00 0.00 78 1011.5
20260510013033 72 0 0.0 0.0 0.00 0.00 0.00 77 1011.3
20260510011539 73 0 0.0 0.0 0.00 0.00 0.00 73 1011.1
20260510010029 75 0 0.0 0.0 0.00 0.00 0.00 70 1010.9
20260510004532 78 0 0.0 0.0 0.00 0.00 0.00 64 1010.7
20260510003031 81 0 0.0 0.0 0.00 0.00 0.00 61 1010.6
20260510001532 82 0 0.0 0.9 0.00 0.00 0.00 60 1010.6
20260510000054 84 149 0.9 0.9 0.00 0.00 0.00 55 1010.5
20260509234545 83 0 0.0 1.7 0.00 0.00 0.00 53 1010.3
20260509233034 83 155 0.9 1.7 0.00 0.00 0.00 52 1010.1
20260509231532 84 139 0.0 2.6 0.00 0.00 0.00 48 1010.1
20260509230037 83 125 0.9 2.6 0.00 0.00 0.00 51 1010.0
20260509224533 85 150 1.7 4.3 0.00 0.00 0.00 55 1009.8
20260509223036 86 0 0.0 1.7 0.00 0.00 0.00 47 1009.8
20260509221535 84 0 0.0 3.5 0.00 0.00 0.00 51 1009.8
20260509220036 84 158 0.9 3.5 0.00 0.00 0.00 54 1009.6
20260509214535 85 134 2.6 4.3 0.00 0.00 0.00 52 1009.6
20260509213038 87 0 0.9 2.6 0.00 0.00 0.00 45 1009.7
20260509211534 88 5 0.9 2.6 0.00 0.00 0.00 42 1009.9
20260509210042 86 0 0.9 2.6 0.00 0.00 0.00 44 1010.1
20260509204539 87 129 0.0 1.7 0.00 0.00 0.00 43 1010.3
20260509203033 85 108 0.0 2.6 0.00 0.00 0.00 45 1010.4
20260509201538 84 143 1.7 3.5 0.00 0.00 0.00 45 1010.7
20260509200032 83 141 0.9 4.3 0.00 0.00 0.00 45 1010.7
20260509194538 83 131 1.7 2.6 0.00 0.00 0.00 49 1010.7
20260509193031 84 128 1.7 2.6 0.00 0.00 0.00 49 1010.8
20260509191530 84 16 0.9 3.5 0.00 0.00 0.00 49 1010.9
20260509190034 83 153 0.0 2.6 0.00 0.00 0.00 55 1010.9
20260509184543 82 0 0.9 2.6 0.00 0.00 0.00 59 1011.0
20260509183033 84 146 1.7 2.6 0.00 0.00 0.00 55 1011.0
20260509181532 83 0 0.9 3.5 0.00 0.00 0.00 55 1011.2
20260509180032 81 108 0.0 3.5 0.00 0.00 0.00 60 1011.2
20260509174536 79 124 1.7 3.5 0.00 0.00 0.00 63 1011.3
20260509173035 78 130 0.9 3.5 0.00 0.00 0.00 66 1011.2
20260509171535 78 1 0.0 2.6 0.00 0.00 0.00 66 1011.3
20260509170030 77 152 0.9 2.6 0.00 0.00 0.00 70 1011.3
20260509164530 76 0 0.0 2.6 0.00 0.00 0.00 68 1011.3
20260509163034 75 146 0.9 4.3 0.00 0.00 0.00 74 1011.3
20260509161533 75 19 0.9 2.6 0.00 0.00 0.00 70 1011.2
20260509160040 74 0 0.0 2.6 0.00 0.00 0.00 72 1011.1
20260509154535 73 278 0.9 3.5 0.00 0.00 0.00 73 1011.2
20260509153043 72 287 0.0 2.6 0.00 0.00 0.00 76 1011.0
20260509151533 71 217 0.0 1.7 0.00 0.00 0.00 76 1010.9
20260509150038 70 0 0.0 0.9 0.00 0.00 0.00 79 1011.1
20260509144549 70 231 0.9 2.6 0.00 0.00 0.00 80 1011.2
20260509143033 69 0 0.0 1.7 0.00 0.00 0.00 83 1011.3
20260509141539 68 229 0.0 2.6 0.00 0.00 0.00 86 1011.3
20260509140034 67 198 0.0 3.5 0.00 0.00 0.00 87 1011.2
20260509134553 66 149 0.9 2.6 0.00 0.00 0.00 90 1011.3
20260509133043 64 140 0.0 1.7 0.00 0.00 0.00 93 1011.3
20260509131537 62 142 0.9 0.9 0.00 0.00 0.00 95 1011.2
20260509130044 61 152 0.9 1.7 0.00 0.00 0.00 96 1011.1
20260509124536 60 0 0.0 0.9 0.00 0.00 0.00 96 1011.0
20260509123032 58 0 0.0 0.0 0.00 0.00 0.00 95 1010.8
20260509121543 57 0 0.0 0.0 0.00 0.00 0.00 95 1010.6
20260509120035 57 0 0.0 0.0 0.00 0.00 0.00 95 1010.4
20260509114538 57 0 0.0 0.0 0.00 0.00 0.00 95 1010.4
20260509113039 57 0 0.0 0.0 0.00 0.00 0.00 94 1010.1
20260509111531 57 0 0.0 0.0 0.00 0.00 0.00 94 1010.0
20260509110034 57 0 0.0 0.0 0.00 0.00 0.00 94 1009.9
20260509104543 57 0 0.0 0.9 0.00 0.00 0.00 94 1009.8
20260509103038 58 0 0.0 0.0 0.00 0.00 0.00 93 1009.8
20260509101556 58 0 0.0 0.0 0.00 0.00 0.00 93 1009.7
20260509100040 58 0 0.0 0.0 0.00 0.00 0.00 92 1009.8
20260509094539 59 0 0.0 0.9 0.00 0.00 0.00 92 1009.8
20260509093037 59 0 0.0 0.0 0.00 0.00 0.00 91 1009.7
20260509091541 60 0 0.0 0.0 0.00 0.00 0.00 91 1009.9
20260509090039 60 0 0.0 0.9 0.00 0.00 0.00 90 1009.9
20260509084537 61 335 0.0 0.9 0.00 0.00 0.00 90 1009.5